Location: Trinity Bay
(51.2333°N, 1.5167°E)
Time: 14:13:33
(UTC+00:00)

Daily predictions for brighter satellites

Satellite Brightness Start Highest point End
(mag) Time Altitude Azimuth Time Altitude Azimuth Time Altitude Azimuth
NOSS 3-3 (A) 4.2 18:56:09 10° SSW 19:01:43 46° ESE 19:07:59 10° NE
NOSS 3-3 (C) 4.3 18:56:15 10° SSW 19:01:50 45° ESE 19:08:05 10° NE
Cosmos 2251 Rocket 3.8 18:57:47 10° S 19:02:56 51° ESE 19:08:10 10° NNE
Cosmos 2184 Rocket 4.2 18:58:42 10° N 19:04:53 52° ENE 19:10:57 10° SSE
ISS -1.6 19:03:02 10° W 19:05:38 21° SW 19:08:14 10° SSE
ARGOS 3.3 19:00:21 10° SSE 19:05:40 62° ENE 19:10:59 10° N
Cosmos 1455 Rocket 4.3 19:01:35 10° SSW 19:05:48 49° WNW 19:10:06 10° N
STARLINK-1240 3.9 19:02:15 10° W 19:06:24 70° N 19:10:33 10° ENE
MONITOR-E 4.0 19:04:44 10° SSE 19:07:17 48° ENE 19:09:52 10° N
STARLINK-1233 3.3 19:04:22 10° W 19:07:29 60° N 19:10:37 10° E
STARLINK-1212 3.3 19:04:50 10° W 19:07:56 60° N 19:11:03 10° E
STARLINK-1105 3.3 19:05:16 10° W 19:08:23 60° N 19:11:31 10° E
STARLINK-1206 3.3 19:05:46 10° W 19:08:52 60° N 19:11:57 10° E
SJ-6B 3.2 19:05:05 10° SE 19:09:04 51° ENE 19:13:07 10° N
STARLINK-1247 3.3 19:06:13 10° W 19:09:19 60° N 19:12:25 10° E
STARLINK-1227 3.3 19:06:38 10° W 19:09:45 60° N 19:12:52 10° E
STARLINK-1218 3.3 19:07:08 10° W 19:10:13 60° N 19:13:19 10° E
STARLINK-1226 3.3 19:07:34 10° W 19:10:40 60° N 19:13:47 10° E
Cosmos 1626 Rocket 4.2 19:06:35 10° NNW 19:10:56 60° W 19:15:12 10° S
STARLINK-1254 3.3 19:07:59 10° WNW 19:11:06 60° N 19:14:13 10° E
STARLINK-1216 3.9 19:07:15 10° W 19:11:24 69° N 19:15:33 10° E
STARLINK-1215 3.2 19:08:28 10° WNW 19:11:35 60° N 19:14:41 10° E
STARLINK-1231 3.2 19:08:56 10° WNW 19:12:02 60° N 19:15:07 10° E
STARLINK-67 2.5 19:09:29 10° WNW 19:12:03 66° N 19:14:37 10° E
Meteor 2-10 4.5 19:07:00 10° SSE 19:12:11 46° E 19:17:33 10° NNE
STARLINK-1232 3.2 19:09:50 10° WNW 19:12:56 60° N 19:16:01 10° E
STARLINK-1217 3.2 19:10:17 10° WNW 19:13:23 60° N 19:16:29 10° E
STARLINK-1208 3.3 19:10:41 10° WNW 19:13:48 61° N 19:16:56 10° E
USA 186 1.8 19:10:42 10° SSE 19:14:02 70° ENE 19:17:13 10° N
STARLINK-1229 3.2 19:11:10 10° WNW 19:14:16 60° N 19:17:22 10° E
STARLINK-1271 3.2 19:11:37 10° WNW 19:14:44 61° N 19:17:50 10° E
STARLINK-1234 3.1 19:11:46 10° WNW 19:14:48 62° N 19:17:49 10° E
STARLINK-1270 3.2 19:12:06 10° WNW 19:15:12 60° N 19:18:17 10° E
STARLINK-1154 3.2 19:12:31 10° WNW 19:15:37 61° N 19:18:44 10° E
STARLINK-1237 3.9 19:12:13 10° W 19:16:22 69° N 19:20:31 10° E
STARLINK-1197 3.2 19:13:26 10° WNW 19:16:32 61° N 19:19:38 10° E
STARLINK-1189 3.2 19:13:53 10° WNW 19:16:59 61° N 19:20:05 10° E
STARLINK-1198 3.2 19:14:20 10° WNW 19:17:26 61° N 19:20:32 10° E
STARLINK-1209 3.0 19:14:40 10° WNW 19:17:38 63° N 19:20:36 10° E
STARLINK-1188 3.2 19:14:47 10° WNW 19:17:53 61° N 19:20:59 10° E
IRIDIUM 104 4.3 19:12:52 10° N 19:18:06 67° E 19:23:17 10° SSE
STARLINK-1235 3.2 19:15:27 10° WNW 19:18:35 64° N 19:21:43 10° E
STARLINK-1187 3.2 19:15:51 10° WNW 19:19:00 63° N 19:22:09 10° E
Cosmos 1603 3.8 19:14:18 10° S 19:19:46 56° ESE 19:25:15 10° NE
STARLINK-1199 3.2 19:16:44 10° WNW 19:19:51 61° N 19:23:00 10° E
STARLINK-1191 3.2 19:17:11 10° WNW 19:20:19 61° N 19:23:26 10° E
STARLINK-1210 3.2 19:17:39 10° WNW 19:20:46 62° N 19:23:53 10° E
FREGAT/IRIS 2.3 19:18:10 10° SSE 19:20:53 89° WSW 19:23:37 10° NNW
STARLINK-1221 3.2 19:18:06 10° WNW 19:21:13 62° N 19:24:21 10° E
STARLINK-1202 3.9 19:17:13 10° W 19:21:21 68° N 19:25:30 10° E
Cosmos 1602 Rocket 4.2 19:17:12 10° NNW 19:21:36 61° W 19:25:56 10° S
STARLINK-1219 3.2 19:18:32 10° WNW 19:21:40 62° N 19:24:47 10° E
Cosmos 2058 Rocket 4.4 19:18:22 10° SE 19:21:44 21° E 19:25:07 10° NE
STARLINK-1222 3.2 19:19:00 10° WNW 19:22:07 62° N 19:25:13 10° E
STARLINK-1211 3.2 19:19:27 10° WNW 19:22:34 62° N 19:25:39 10° E
Cosmos 2237 Rocket 4.4 19:17:58 10° W 19:22:44 27° NW 19:27:32 10° NNE
ATLAS 2AS CENTAUR R/B 3.0 19:15:01 10° NW 19:22:48 74° NE 19:29:57 10° SE
Ariane Rocket 3.3 19:17:47 10° S 19:22:51 74° WSW 19:27:56 10° NNW
STARLINK-1214 3.2 19:19:54 10° WNW 19:23:01 62° N 19:26:06 10° E
Cosmos 1758 3.8 19:19:07 10° SSW 19:23:12 67° WNW 19:27:18 10° N
STARLINK-1245 3.2 19:20:23 10° WNW 19:23:29 62° N 19:26:30 11° E
STARLINK-1238 3.2 19:20:47 10° WNW 19:23:55 62° N 19:26:57 11° E
Meteor 1-21 Rocket 4.3 19:18:25 10° NNW 19:24:00 83° W 19:29:32 10° S
USA 234 4.3 19:19:51 10° ENE 19:24:34 21° SE 19:29:14 10° S
STARLINK-1205 3.2 19:21:43 10° WNW 19:24:50 62° N 19:27:48 11° E
STARLINK-1204 3.2 19:22:11 10° WNW 19:25:18 62° N 19:28:14 11° E
STARLINK-1203 3.9 19:21:24 10° W 19:25:35 68° N 19:29:46 10° E
Resurs 01 Rocket 2.5 19:21:57 10° SE 19:25:51 32° ENE 19:29:47 10° N
Cosmos 2154 Rocket 4.3 19:20:55 10° N 19:27:07 51° ENE 19:33:15 10° SSE
IRIDIUM 114 4.3 19:22:01 10° N 19:27:17 79° E 19:32:30 10° S
MOS 1 4.4 19:21:37 10° SSE 19:27:17 88° WSW 19:33:00 10° NNW
Meteor 1-16 Rocket 4.3 19:24:19 10° S 19:29:33 53° E 19:34:57 10° NNE
SeaSat 1 3.0 19:25:28 10° NNE 19:30:22 63° NW 19:35:13 10° SW
STARLINK-1246 3.9 19:27:12 10° W 19:31:20 67° N 19:35:29 10° E
SL-4 R/B 2.9 19:29:05 10° SSW 19:31:45 21° SE 19:33:43 14° E
Nadezhda 1 Rocket 4.4 19:26:35 10° SSE 19:32:36 45° E 19:38:36 10° NNE
Aureole 3 4.2 19:28:20 10° S 19:33:08 87° W 19:39:20 10° N
STARLINK-1201 3.2 19:30:21 10° WNW 19:33:36 65° N 19:36:24 13° E
Cosmos 1726 Rocket 4.1 19:30:49 10° SSE 19:34:54 39° E 19:39:03 10° NNE
STARLINK-1224 3.9 19:32:11 10° W 19:36:19 67° N 19:40:17 11° E
IRIDIUM 103 4.4 19:31:12 10° N 19:36:28 88° W 19:41:41 10° S
Cosmos 1340 Rocket 4.0 19:33:22 10° SE 19:36:40 24° E 19:39:57 10° NE
ATLAS 5 CENTAUR R/B 3.0 19:35:15 10° SSE 19:37:56 16° ESE 19:40:45 10° ENE
Cosmos 1825 Rocket 3.5 19:34:15 10° N 19:38:41 85° ENE 19:43:04 10° S
Cosmos 1328 3.8 19:34:45 10° N 19:38:45 61° ENE 19:42:42 10° SSE
STARLINK-1225 3.9 19:37:12 10° W 19:41:20 67° N 19:45:05 12° E
Cosmos 1703 3.2 19:40:11 10° N 19:44:10 73° ENE 19:48:07 10° SSE
Meteor 2-17 Rocket 4.5 19:38:11 10° N 19:44:19 64° ENE 19:50:25 10° SSE
STARLINK-1230 3.9 19:42:11 10° W 19:46:20 67° N 19:49:52 14° E
Cosmos 1943 Rocket 3.8 19:43:33 10° NW 19:48:25 32° WSW 19:53:18 10° SSW
Cosmos 614 Rocket 4.3 19:44:20 10° S 19:49:16 44° ESE 19:54:12 10° NE
Cosmos 2369 Rocket 3.4 19:45:10 10° NW 19:50:27 41° WSW 19:55:42 10° S
Abrixas rocket 2.3 19:48:00 10° WSW 19:50:52 48° S 19:52:19 24° ESE
STARLINK-1243 3.8 19:47:09 10° W 19:51:17 68° N 19:54:37 15° E
Cosmos 1758 Rocket 4.0 19:47:10 10° NNW 19:51:28 62° W 19:55:43 10° S
Cosmos 1300 4.1 19:50:48 18° ESE 19:51:31 19° E 19:54:18 10° NE
Cosmos 2074 Rocket 4.2 19:45:17 10° NNW 19:51:35 77° W 19:57:51 10° S
COSMOS 2455 3.1 19:46:12 10° NNW 19:52:10 56° NE 19:56:39 18° ESE
SPOT 3 Rocket 3.6 19:47:06 10° SSE 19:52:19 89° E 19:57:35 10° NNW
SL-24 R/B 3.9 19:48:42 10° NNE 19:52:58 60° E 19:56:46 10° S
Cosmos 1437 3.8 19:51:01 10° NNW 19:53:55 42° W 19:56:48 10° S
Cosmos 921 Rocket 3.4 19:50:37 10° N 19:54:39 45° ENE 19:57:12 20° SE
CZ-2C R/B 3.7 19:50:06 10° NNE 19:54:49 65° ESE 19:59:27 10° S
STARLINK-1236 3.8 19:52:10 10° W 19:56:18 68° N 19:59:26 17° E
Cosmos 1953 3.3 19:55:04 10° SSW 19:58:56 50° WNW 20:02:51 10° N
Cosmos 1953 Rocket 3.6 19:54:33 10° N 19:59:03 88° W 20:03:33 10° S
Cosmos 407 Rocket 3.7 19:55:44 10° S 20:00:36 45° ESE 20:05:29 10° NE
Cosmos 2228 2.9 19:56:53 10° S 20:01:10 80° E 20:05:32 10° NNE
Cosmos 1606 Rocket 3.5 19:59:22 10° S 20:03:48 89° E 20:08:18 10° N
Cosmos 1908 3.1 20:00:30 10° S 20:04:20 73° E 20:08:14 10° NNE
STARLINK-1269 3.8 20:02:09 10° WNW 20:06:18 70° N 20:09:00 21° E
Cosmos 1818 3.5 20:02:53 10° SSW 20:08:18 74° SE 20:13:45 10° NE
ATLAS CENTAUR R/B 3.7 20:06:01 10° NNW 20:08:26 15° NNE 20:10:46 10° NE
ERBS 3.4 20:05:28 10° NW 20:08:39 37° NNE 20:10:29 20° ENE
ERS-1 Rocket 4.1 20:07:39 20° E 20:09:51 27° ENE 20:14:02 10° N
STARLINK-1200 3.8 20:07:08 10° WNW 20:11:17 71° N 20:13:46 23° E
Meteor 1-11 4.3 20:07:59 10° NNW 20:13:49 83° WSW 20:19:30 10° S
STARLINK-1192 3.7 20:12:07 10° WNW 20:16:16 72° N 20:18:33 25° E
SPOT 1/Viking Rocket 4.3 20:14:31 24° ESE 20:17:00 38° ENE 20:21:49 10° N
Cosmos 1461 3.1 20:12:48 10° NW 20:17:19 85° SW 20:19:51 27° SE
Cosmos 1943 3.4 20:12:12 10° SW 20:17:52 75° WNW 20:23:35 10° NNE
MetOp-B 4.2 20:15:08 21° SE 20:18:39 63° ENE 20:23:58 10° N
STARLINK-1244 3.7 20:17:06 10° WNW 20:21:15 73° N 20:23:20 28° E
SAR-Lupe-2 3.8 20:22:39 10° NNE 20:26:07 44° E 20:26:39 41° SE
STARLINK-1138 3.7 20:22:04 10° WNW 20:26:14 75° N 20:28:06 31° E
H-2A R/B 4.1 20:25:18 10° SSW 20:29:36 26° W 20:33:51 10° NW
CZ-4C R/B 3.9 20:25:10 10° NW 20:31:03 35° NNE 20:37:07 13° E
STARLINK-1143 3.6 20:27:02 10° WNW 20:31:12 76° NNE 20:32:52 35° E
STARLINK-1228 2.7 20:28:40 10° WNW 20:31:31 62° SSW 20:31:34 62° SSW
Cosmos 1023 Rocket 4.4 20:27:18 10° S 20:32:25 62° ESE 20:37:30 10° NNE
Cosmos 1697 Rocket 4.1 20:28:01 10° NNW 20:32:44 26° NE 20:35:27 18° E
Cosmos 1076 Rocket 4.0 20:30:09 10° N 20:34:13 41° ENE 20:35:03 37° ESE
STARLINK-1241 3.6 20:32:03 10° WNW 20:36:13 78° NNE 20:37:41 39° E
SPOT 5 3.5 20:36:47 30° E 20:37:32 32° ENE 20:41:24 10° N
CZ-2C R/B 2.5 20:32:30 10° NNE 20:37:43 87° WNW 20:42:54 10° SSW
Cosmos 1726 4.5 20:35:21 10° SW 20:38:31 25° WNW 20:41:42 10° NNW
STARLINK-1239 3.6 20:37:01 10° WNW 20:41:11 80° NNE 20:42:27 44° E
NOSS 3-4 (A) 4.3 20:34:32 10° NW 20:41:18 55° SW 20:46:22 21° SSE
NOSS 3-4 (C) 4.3 20:34:38 10° NW 20:41:24 56° SW 20:46:27 21° SSE
Cosmos 2341 Rocket 4.0 20:35:36 10° N 20:42:01 87° W 20:46:40 20° S
Iridium 2 3.9 20:41:59 48° E 20:42:07 49° E 20:45:49 10° NNE
STARLINK-1233 2.9 20:40:15 10° WNW 20:43:20 70° SSW 20:43:20 70° SSW
Cosmos 2058 3.1 20:39:47 10° N 20:43:48 48° ENE 20:44:18 45° E
STARLINK-1212 2.9 20:40:42 10° WNW 20:43:45 69° SW 20:43:45 69° SW
STARLINK-1105 2.9 20:41:09 10° WNW 20:44:12 68° SW 20:44:12 68° SW
Aureole 1 Rocket 4.1 20:37:09 10° SSW 20:44:41 84° WNW 20:50:32 10° NNE
STARLINK-1206 2.9 20:41:39 10° WNW 20:44:37 67° SW 20:44:37 67° SW
STARLINK-1247 3.0 20:42:06 10° WNW 20:45:03 66° SW 20:45:03 66° SW
STARLINK-1227 3.0 20:42:30 10° WNW 20:45:29 66° SW 20:45:29 66° SW
STARLINK-67 4.2 20:43:31 10° W 20:45:06 26° WSW 20:45:06 26° WSW
STARLINK-1218 3.0 20:43:01 10° WNW 20:45:55 65° SW 20:45:55 65° SW
STARLINK-1240 3.6 20:42:01 10° WNW 20:46:11 82° NNE 20:47:14 49° E
STARLINK-1226 3.0 20:43:26 10° WNW 20:46:21 64° SW 20:46:21 64° SW
STARLINK-1254 3.0 20:43:51 10° WNW 20:46:47 64° SW 20:46:47 64° SW
STARLINK-1215 3.1 20:44:21 10° WNW 20:47:13 62° SW 20:47:13 62° SW
STARLINK-1231 3.1 20:44:48 10° WNW 20:47:39 61° WSW 20:47:39 61° WSW
Cosmos 1763 Rocket 4.0 20:43:07 10° NNW 20:48:08 44° ENE 20:49:35 36° E
STARLINK-1232 3.1 20:45:42 10° WNW 20:48:31 60° WSW 20:48:31 60° WSW
STARLINK-1217 3.2 20:46:09 10° WNW 20:48:57 59° WSW 20:48:57 59° WSW
STARLINK-1208 3.2 20:46:33 10° WNW 20:49:24 60° WSW 20:49:24 60° WSW
STARLINK-1229 3.2 20:47:02 10° WNW 20:49:48 58° WSW 20:49:48 58° WSW
STARLINK-1234 3.5 20:47:21 10° WNW 20:49:52 45° WSW 20:49:52 45° WSW
STARLINK-1271 3.2 20:47:30 10° WNW 20:50:15 57° WSW 20:50:15 57° WSW
STARLINK-1270 3.3 20:47:58 10° WNW 20:50:41 56° WSW 20:50:41 56° WSW
STARLINK-1216 3.5 20:47:00 10° WNW 20:51:11 85° NNE 20:52:03 55° E
STARLINK-1154 3.3 20:48:24 10° WNW 20:51:06 55° WSW 20:51:06 55° WSW
STARLINK-1197 3.3 20:49:18 10° WNW 20:51:59 54° WSW 20:51:59 54° WSW
Cosmos 1408 4.0 20:49:35 10° N 20:52:05 25° NE 20:52:05 25° NE
STARLINK-1189 3.4 20:49:45 10° WNW 20:52:25 53° WSW 20:52:25 53° WSW
STARLINK-1209 3.8 20:50:08 10° WNW 20:52:23 38° WSW 20:52:23 38° WSW
STARLINK-1198 3.4 20:50:12 10° WNW 20:52:50 52° WSW 20:52:50 52° WSW
STARLINK-1188 3.4 20:50:40 10° WNW 20:53:17 52° WSW 20:53:17 52° WSW
STARLINK-1235 3.6 20:51:19 10° WNW 20:53:55 45° WSW 20:53:55 45° WSW
STARLINK-1187 3.5 20:51:44 10° WNW 20:54:21 48° WSW 20:54:21 48° WSW
Terra 2.5 20:55:02 35° E 20:55:43 37° ENE 21:00:06 10° N
STARLINK-1199 3.5 20:52:36 10° WNW 20:55:12 50° WSW 20:55:12 50° WSW
RESURS DK-1 3.6 20:52:14 10° NNW 20:55:54 29° NE 20:56:27 28° ENE
STARLINK-1237 3.5 20:51:58 10° WNW 20:56:08 87° NNE 20:56:48 62° ESE
STARLINK-1191 3.5 20:53:04 10° WNW 20:55:38 49° WSW 20:55:38 49° WSW
STARLINK-1210 3.6 20:53:30 10° WNW 20:56:04 48° WSW 20:56:04 48° WSW
STARLINK-1221 3.6 20:53:58 10° WNW 20:56:30 48° WSW 20:56:30 48° WSW
Cosmos 1174 4.1 20:53:15 10° NNW 20:57:08 62° NE 20:57:56 51° E
STARLINK-1219 3.6 20:54:24 10° WNW 20:56:56 47° WSW 20:56:56 47° WSW
STARLINK-1222 3.7 20:54:52 10° WNW 20:57:22 46° WSW 20:57:22 46° WSW
STARLINK-1211 3.7 20:55:19 10° WNW 20:57:48 46° WSW 20:57:48 46° WSW
STARLINK-1214 3.7 20:55:46 10° WNW 20:58:14 45° WSW 20:58:14 45° WSW
STARLINK-1245 3.8 20:56:15 10° WNW 20:58:39 43° WSW 20:58:39 43° WSW
Cosmos 2058 Rocket 3.9 20:55:00 10° SSW 20:59:23 51° WNW 21:03:49 10° N
Cosmos 2218 Rocket 3.9 20:53:18 10° N 20:59:32 82° E 21:02:26 34° SSE
STARLINK-1238 3.8 20:56:40 10° WNW 20:59:06 44° WSW 20:59:06 44° WSW
Cosmos 192 4.3 20:54:57 10° NNW 20:59:56 73° ENE 21:01:06 51° SE
MOS 1 Rocket 4.3 20:55:17 10° N 21:00:29 55° WNW 21:05:47 10° SW
STARLINK-1205 3.8 20:57:35 10° WNW 20:59:56 42° WSW 20:59:56 42° WSW
Cosmos 1980 Rocket 3.7 20:56:24 10° NNW 21:00:57 24° NE 21:03:11 19° ENE
STARLINK-1202 3.5 20:56:57 10° WNW 21:01:07 90° ESE 21:01:35 70° ESE
STARLINK-1204 3.9 20:58:04 10° WNW 21:00:23 41° WSW 21:00:23 41° WSW
Cosmos 1455 4.3 21:03:40 17° NE 21:03:40 17° NE 21:04:55 10° NE
Cosmos 1892 2.8 20:58:09 10° N 21:01:53 58° ENE 21:01:53 58° ENE
Resurs 01 Rocket 3.0 20:59:16 16° SSW 21:02:19 35° W 21:06:23 10° NNW
Cosmos 540 Rocket 4.4 20:58:42 10° N 21:03:24 33° NE 21:04:25 30° ENE
STARLINK-1203 3.4 21:01:20 10° WNW 21:05:32 84° SSW 21:05:50 76° SE
Okean 3 Rocket 4.3 21:04:20 10° N 21:08:14 37° ENE 21:08:14 37° ENE
USA 234 3.2 21:02:00 10° ENE 21:08:30 62° SE 21:14:58 10° SW
Cosmos 1656 3.9 21:03:32 10° NNW 21:09:11 58° NE 21:10:37 45° ESE
STARLINK-1201 4.2 21:06:39 10° WNW 21:08:57 38° WSW 21:08:57 38° WSW
Iridium 4 Rocket 2.8 21:06:04 10° N 21:10:22 84° E 21:10:42 74° SSE
CARTOSAT-1 3.5 21:10:07 64° E 21:10:22 66° ENE 21:14:41 10° N
SL-4 R/B 2.9 21:07:29 10° WSW 21:09:22 30° WSW 21:09:22 30° WSW
STARLINK-1246 3.4 21:06:55 10° WNW 21:11:05 84° SSW 21:11:09 83° S
Cosmos 1190 Rocket 4.5 21:07:33 10° SW 21:12:49 62° WNW 21:18:05 10° NNE
Cosmos 1340 Rocket 4.3 21:09:12 10° SW 21:12:57 36° WNW 21:16:44 10° N
ATLAS 2AS CENTAUR R/B 3.9 21:06:36 10° NW 21:13:17 35° WSW 21:17:26 19° SSW
Cosmos 1140 Rocket 3.8 21:08:41 10° SW 21:13:51 67° WNW 21:19:01 10° NNE
Spot 2 Rocket 4.0 21:11:43 31° SSW 21:13:59 56° WSW 21:19:02 10° NNW
STARLINK-1224 3.5 21:11:53 10° WNW 21:15:55 79° SW 21:15:55 79° SW
Cosmos 2181 Rocket 3.9 21:12:14 23° S 21:16:23 85° W 21:22:37 10° N
Cosmos 1825 3.5 21:13:59 10° N 21:16:32 30° NE 21:16:32 30° NE
SL-8 Rocket 4.3 21:13:44 10° NNW 21:19:58 65° W 21:23:20 29° SSW
Cosmos 1766 Rocket 4.3 21:16:08 10° N 21:20:00 40° ENE 21:20:00 40° ENE
STARLINK-1225 3.7 21:16:53 10° WNW 21:20:43 71° WSW 21:20:43 71° WSW
ATLAS 5 CENTAUR R/B 1.6 21:17:30 10° SW 21:21:46 82° NW 21:26:39 10° NE
Cosmos 841 Rocket 3.8 21:18:27 10° NNW 21:23:37 49° ENE 21:24:13 47° E
SL-24 R/B - RUBIN 2 4.5 21:19:04 10° SW 21:24:50 75° NW 21:31:20 10° NE
STARLINK-1230 3.8 21:21:52 10° WNW 21:25:30 64° WSW 21:25:30 64° WSW
Cosmos 1300 3.9 21:25:42 31° WSW 21:26:55 40° WNW 21:30:34 10° N
Cosmos 1570 Rocket 4.1 21:23:55 10° NNW 21:29:16 64° ENE 21:29:51 60° E
IGS 5A 4.1 21:29:44 45° WSW 21:30:14 48° W 21:34:18 10° NNW
Cosmos 2082 Rocket 4.4 21:33:29 11° ENE 21:33:29 11° ENE 21:33:52 10° ENE
STARLINK-1243 4.0 21:26:49 10° WNW 21:30:16 56° W 21:30:16 56° W
Cosmos 2366 rocket 4.2 21:25:33 10° NNW 21:31:38 66° W 21:34:07 37° SSW
Meteor 2-12 Rocket 4.4 21:25:45 10° NNW 21:31:53 80° W 21:33:43 47° S
Mayak 0.8 21:29:16 10° NE 21:30:35 17° NE 21:30:35 17° NE
Cosmos 468 Rocket 3.9 21:27:58 10° NNW 21:33:10 75° WSW 21:33:48 65° SSW
Cosmos 1812 Rocket 3.6 21:33:49 68° WSW 21:34:05 71° WNW 21:38:26 10° N
STARLINK-1236 4.2 21:31:50 10° WNW 21:35:04 50° W 21:35:04 50° W
COSMOS 2455 3.9 21:32:28 10° NW 21:37:55 36° WSW 21:39:49 29° SSW
ASTEX 1 4.0 21:39:12 44° ENE 21:39:12 44° ENE 21:43:31 10° N
Cosmos 1356 Rocket 4.4 21:43:19 40° NNE 21:43:19 40° NNE 21:46:10 10° NNE
COSMOS 2406 3.8 21:45:30 41° ENE 21:45:30 41° ENE 21:49:40 10° NE
Nadezhda 3 Rocket 4.0 21:43:48 57° ESE 21:44:16 58° E 21:50:26 10° NNE
ERBS 4.3 21:41:48 10° WNW 21:43:27 26° WNW 21:43:27 26° WNW
Cosmos 1833 Rocket 4.2 21:47:50 23° ENE 21:47:50 23° ENE 21:50:21 10° NE
ERS-1 Rocket 3.4 21:47:39 49° SW 21:48:22 54° W 21:53:20 10° NNW
ATLAS CENTAUR R/B 2.5 21:44:36 10° NNW 21:47:36 36° N 21:47:36 36° N
Cosmos 1408 Rocket 4.4 21:59:13 10° N 22:02:35 47° NNE 22:02:35 47° NNE
Cosmos 2369 3.6 22:00:01 10° NNW 22:05:42 83° ENE 22:05:45 83° ENE
Cosmos 2208 Rocket 4.0 22:01:13 10° NNW 22:06:09 78° WNW 22:06:09 78° WNW
Cosmos 1741 Rocket 4.0 22:07:29 82° NNW 22:07:29 82° NNW 22:12:41 10° NNE
Cosmos 2151 4.0 22:05:33 10° NNW 22:08:48 44° NW 22:08:48 44° NW
Cosmos 2239 Rocket 4.3 22:04:31 10° N 22:10:48 87° W 22:11:22 75° S
Meteor 2-10 Rocket 3.5 22:12:36 78° NW 22:12:36 78° NW 22:17:50 10° N
Cosmos 1821 Rocket 4.0 22:07:21 10° NNW 22:13:43 75° W 22:14:33 66° SSW
SPOT 5 4.0 22:16:00 33° W 22:16:00 33° W 22:19:35 10° NNW
Cosmos 1697 Rocket 2.6 22:11:40 10° NNW 22:17:11 81° W 22:17:11 81° W
CZ-4C R/B 2.9 22:13:45 10° NW 22:20:40 74° NE 22:22:17 57° ESE
Cosmos 1934 Rocket 3.8 22:15:54 10° N 22:22:13 83° E 22:22:23 82° ESE
Meteor 2-3 Rocket 3.7 22:21:13 10° NNW 22:26:44 82° NNW 22:26:44 82° NNW
Cosmos 2221 4.4 22:33:51 24° NNE 22:33:51 24° NNE 22:35:46 10° NNE
SL-16 R/B 3.4 22:26:34 10° NNW 22:31:42 33° NE 22:32:21 32° ENE
Cosmos 1605 Rocket 4.0 22:26:38 10° N 22:32:34 68° ENE 22:32:34 68° ENE
Cosmos-2242 4.3 22:33:51 38° NW 22:33:51 38° NW 22:37:09 10° N
Terra 3.1 22:33:54 33° W 22:33:54 33° W 22:37:51 10° NNW
RESURS DK-1 4.2 22:30:08 10° NW 22:32:20 27° WNW 22:32:20 27° WNW
Cosmos 1455 4.4 22:38:33 25° NW 22:38:33 25° NW 22:40:45 10° N
Cosmos 2360 Rocket 4.1 22:33:21 10° NNW 22:37:39 22° NE 22:39:34 18° ENE
Cosmos 2322 Rocket 3.4 22:36:29 10° NNW 22:41:35 33° NE 22:42:08 32° ENE
Cosmos 540 Rocket 4.4 22:40:13 10° NW 22:44:14 41° WNW 22:44:14 41° WNW
Cosmos 1980 Rocket 2.4 22:40:03 10° NNW 22:44:56 68° NW 22:44:56 68° NW
ALOS 2 4.1 22:51:07 33° N 22:51:07 33° N 22:53:46 10° N
USA 234 3.5 22:45:07 10° ENE 22:51:36 68° NNW 22:58:05 10° W
ATLAS 5 CENTAUR R/B 3.8 23:03:15 10° WNW 23:07:09 27° NNW 23:11:32 10° NE
Mayak 0.7 23:04:41 10° N 23:07:09 28° NNW 23:07:09 28° NNW
Cosmos 2278 4.5 23:03:11 10° NW 23:07:28 44° WNW 23:07:28 44° WNW
BREEZE M DEB (TANK) 4.5 23:03:24 10° W 23:09:08 82° S 23:33:22 10° E
Cosmos 2082 Rocket 2.8 23:15:18 50° NE 23:15:18 50° NE 23:19:26 10° NNE
Cosmos 2344 4.3 23:06:16 10° NW 23:15:38 77° SW 23:18:39 56° SSE
COSMOS 2406 4.4 23:27:30 34° WNW 23:28:40 38° NW 23:34:00 10° NNE
Cosmos 1833 Rocket 3.3 23:29:28 53° NW 23:29:28 53° NW 23:34:40 10° NNE
Cosmos 2219 Rocket 4.2 23:33:10 10° NNW 23:37:31 22° NE 23:40:10 16° ENE
Cosmos 1607 4.3 23:48:19 55° NE 23:48:19 55° NE 23:53:09 10° NE
Cosmos 1459 Rocket 4.1 23:42:01 10° N 23:47:45 73° NNW 23:47:45 73° NNW
Cosmos 1727 Rocket 4.2 23:51:23 67° NW 23:51:23 67° NW 23:57:12 10° N
